"Pseudo-MPEC" for xO29002

Created 2022 Nov 26 21:22:25 UT using Find_Orb

Click here for an explanation of pseudo-MPECs

 
 Astrometry: 
     xO29002*LC2022 10 30.60145510 24 44.054-02 34 40.94   ~BNM7 23.0 rVNEOCP568
     xO29002 LC2022 10 30.61560210 24 45.137-02 34 58.33   ~AVCb 23.0 rVNEOCP568
     xO29002 LC2022 10 30.62967210 24 46.202-02 35 15.61   ~AVCb 23.0 rVNEOCP568
     xO29002 LC2022 10 30.64094210 24 47.054-02 35 29.69   ~AVCb 23.2 rVNEOCP568
     xO29002 3C2022 11 01iUZTX]Rr_[AstrometryBYX;`xredacted;-g]qjm+)Vy+85tH,/T14
     xO29002 3C2022 11 01Vl/6+1LNclickD^C*\Qq?here3.EiaP[vK)\Z`!IkeZ=9XV7b8B3T14
     xO29002 3C2022 11 01XDOE,Ohm%ID*-m[xpforMd*DWexplanationbn$96kK[uJgJ85O;T14

Station data:
(568) Mauna Kea  (N19.826114 W155.472200)  US/Hawaii. 3.6-m
   Canada-France-Hawaii Telescope + CCD2.24-m University of Hawaii reflector.
(T14) Mauna Kea-UH/Tholen NEO Follow-Up (CFHT)  (N19.825252 W155.468876)
   US/Hawaii. 3.6-m Canada-France-Hawaii Telescope.

Orbital elements:  xO29002
   Perihelion 2022 May 13.20297 +/- 141 TT =  4:52:16 (JD 2459712.70297)
Epoch 2022 Nov  1.0 TT = JDT 2459884.5   Earth MOID: 0.7041   AutoNEOCP
M  43.73894280 +/- 80               (J2000 ecliptic)
n   0.25459662 +/- 0.377            Peri.  124.20817 +/- 80
a   2.46547701 +/- 2.44             Node   290.70250 +/- 25
e   0.3640074 +/- 0.158             Incl.   31.56782 +/- 11
P   3.87                   H 18.6   G  0.15   U 12.1  SR
q 1.56802512 +/- 0.718    Q 3.36292889 +/- 5.2
From 7 observations 2022 Oct. 30-Nov. 1; mean residual 0".07
Residuals in arcseconds: 
221030 568  .02+  .03+    221030 568  .09-  .14-    221101 T14  .05-  .02+    
221030 568  .08+  .04+    221101 T14  .08+  .07-    
221030 568  .02-  .07+    221101 T14  .04-  .04+    

Ephemerides (geocentric):
Date (UTC) HH   RA             Dec           delta  r     elong  mag " sig PA
---- --------  ------------   ------------  ------ ------ -----  --- --------
2022 11 26 21  10 54 10.482   -11 58 50.05  2.1837 2.1572  75.4 23.1 4084  49
2022 11 26 22  10 54 12.604   -11 59 42.00  2.1834 2.1574  75.4 23.1 4098  49
2022 11 26 23  10 54 14.723   -12 00 33.96  2.1831 2.1576  75.4 23.1 4112  49
2022 11 27 00  10 54 16.841   -12 01 25.91  2.1828 2.1578  75.4 23.1 4126  49
2022 11 27 01  10 54 18.956   -12 02 17.86  2.1824 2.1579  75.5 23.1 4140  49
2022 11 27 02  10 54 21.070   -12 03 09.81  2.1821 2.1581  75.5 23.1 4154  49
2022 11 27 03  10 54 23.181   -12 04 01.76  2.1818 2.1583  75.5 23.1 4168  49
2022 11 27 04  10 54 25.291   -12 04 53.71  2.1815 2.1585  75.6 23.1 4182  49
2022 11 27 05  10 54 27.398   -12 05 45.66  2.1812 2.1586  75.6 23.1 4196  49
2022 11 27 06  10 54 29.504   -12 06 37.61  2.1809 2.1588  75.6 23.1 4210  49
2022 11 27 07  10 54 31.607   -12 07 29.56  2.1806 2.1590  75.6 23.1 4224  49
2022 11 27 08  10 54 33.709   -12 08 21.51  2.1803 2.1592  75.7 23.1 4238  49
2022 11 27 09  10 54 35.808   -12 09 13.46  2.1799 2.1594  75.7 23.1 4252  49
2022 11 27 10  10 54 37.906   -12 10 05.40  2.1796 2.1595  75.7 23.1 4266  49
2022 11 27 11  10 54 40.002   -12 10 57.35  2.1793 2.1597  75.7 23.1 4280  49
2022 11 27 12  10 54 42.095   -12 11 49.30  2.1790 2.1599  75.8 23.1 4294  49
2022 11 27 13  10 54 44.187   -12 12 41.24  2.1787 2.1601  75.8 23.1 4309  49
2022 11 27 14  10 54 46.276   -12 13 33.19  2.1784 2.1602  75.8 23.1 4323  49
2022 11 27 15  10 54 48.363   -12 14 25.13  2.1781 2.1604  75.9 23.1 4337  49
2022 11 27 16  10 54 50.449   -12 15 17.08  2.1778 2.1606  75.9 23.1 4351  49
2022 11 27 17  10 54 52.532   -12 16 09.02  2.1774 2.1608  75.9 23.1 4366  49
2022 11 27 18  10 54 54.614   -12 17 00.97  2.1771 2.1610  75.9 23.1 4380  49
2022 11 27 19  10 54 56.693   -12 17 52.91  2.1768 2.1611  76.0 23.1 4394  49
2022 11 27 20  10 54 58.771   -12 18 44.85  2.1765 2.1613  76.0 23.1 4409  49
2022 11 27 21  10 55 00.846   -12 19 36.79  2.1762 2.1615  76.0 23.1 4423  49
2022 11 27 22  10 55 02.919   -12 20 28.73  2.1759 2.1617  76.0 23.1 4438  49
2022 11 27 23  10 55 04.991   -12 21 20.67  2.1756 2.1619  76.1 23.1 4452  49
2022 11 28 00  10 55 07.060   -12 22 12.61  2.1753 2.1620  76.1 23.1 4467  49
2022 11 28 01  10 55 09.127   -12 23 04.55  2.1749 2.1622  76.1 23.1 4481  49
2022 11 28 02  10 55 11.192   -12 23 56.49  2.1746 2.1624  76.2 23.1 4496  49
2022 11 28 03  10 55 13.256   -12 24 48.43  2.1743 2.1626  76.2 23.1 4510  49
2022 11 28 04  10 55 15.317   -12 25 40.37  2.1740 2.1627  76.2 23.1 4525  49
2022 11 28 05  10 55 17.376   -12 26 32.30  2.1737 2.1629  76.2 23.1 4540  49
2022 11 28 06  10 55 19.433   -12 27 24.24  2.1734 2.1631  76.3 23.1 4554  49
2022 11 28 07  10 55 21.488   -12 28 16.18  2.1731 2.1633  76.3 23.1 4569  49
2022 11 28 08  10 55 23.541   -12 29 08.11  2.1728 2.1635  76.3 23.1 4584  49
2022 11 28 09  10 55 25.593   -12 30 00.05  2.1724 2.1636  76.4 23.1 4599  49
2022 11 28 10  10 55 27.642   -12 30 51.98  2.1721 2.1638  76.4 23.1 4613  49
2022 11 28 11  10 55 29.689   -12 31 43.91  2.1718 2.1640  76.4 23.1 4628  49
2022 11 28 12  10 55 31.733   -12 32 35.85  2.1715 2.1642  76.4 23.1 4643  49
2022 11 28 13  10 55 33.776   -12 33 27.78  2.1712 2.1644  76.5 23.1 4658  49
2022 11 28 14  10 55 35.817   -12 34 19.71  2.1709 2.1645  76.5 23.1 4673  49
2022 11 28 15  10 55 37.856   -12 35 11.64  2.1706 2.1647  76.5 23.1 4688  49
2022 11 28 16  10 55 39.893   -12 36 03.57  2.1702 2.1649  76.5 23.1 4703  49
2022 11 28 17  10 55 41.928   -12 36 55.50  2.1699 2.1651  76.6 23.1 4718  49
2022 11 28 18  10 55 43.960   -12 37 47.43  2.1696 2.1652  76.6 23.1 4733  49
2022 11 28 19  10 55 45.991   -12 38 39.35  2.1693 2.1654  76.6 23.1 4748  49
2022 11 28 20  10 55 48.020   -12 39 31.28  2.1690 2.1656  76.7 23.1 4763  49